SCP
0 0 0 0 0 0 0 0 0 0 0 0 0 0 0 0 0 0 0 0 0 0 0 0 0 0 0 0 0 0 0 0 0 0 0 0 0 0 0 0 0 0 0
0 0 0 0 0 0 0 0 0 0 0 0 0 0 0 0 0 0 0 0 0 0 0 0 0 0 0 0 0 0 0 0 0 0 0 0 0 0 0 0 0 0 0
0 0 0 0 0 0 0 0 0 0 0 0 0 0 0 0 0 0 0 0 0 0 0 0 0 0 0 0 0 0 0 0 0 0 0 0 0 0 0 0 0 0 0
0 0 0 0 0 0 0 0 0 0 0 0 0 0 0 0 0 0 0 0 0 0 0 0 0 0 0 0 0 0 0 0 0 0 0 0 0 0 0 0 0 0 0
0 0 0 0 0 0 0 0 0 0 0 0 0 0 0 0 0 0 0 0 0 0 0 0 0 0 0 0 0 0 0 0 0 0 0 0 0 0 0 0 0 0 0
0 0 0 0 0 0 0 0 0 0 0 0 0 0 0 0 0 0 0 0 0 0 0 0 0 0 0 0 0 0 0 0 0 0 0 0 0 0 0 0 0 0 0
0 0 0 0 0 0 0 0 0 0 0 0 0 0 0 0 0 0 0 0 0 0 0 0 0 0 0 0 0 0 0 0 0 0 0 0 0 0 0 0 0 0 0
0 0 0 0 0 0 0 0 0 0 0 0 0 0 0 0 0 0 0 0 0 0 0 0 0 0 0 0 0 0 0 0 0 0 0 0 0 0 0 0 0 0 0
0 0 0 0 0 0 0 0 0 0 0 0 0 0 0 0 0 0 0 0 0 0 0 0 0 0 0 0 0 0 0 0 0 0 0 0 0 0 0 0 0 0 0
0 0 0 0 0 0 0 0 0 0 0 0 0 0 0 0 0 0 0 0 0 0 0 0 0 0 0 0 0 0 0 0 0 0 0 0 0 0 0 0 0 0 0
0 0 0 0 0 0 0 0 0 0 0 0 0 0 0 0 0 0 0 0 0 0 0 0 0 0 0 0 0 0 0 0 0 0 0 0 0 0 0 0 0 0 0
0 0 0 0 0 0 0 0 0 0 0 0 0 0 0 0 0 0 0 0 0 0 0 0 0 0 0 0 0 0 0 0 0 0 0 0 0 0 0 0 0 0 0
0 0 0 0 0 0 0 0 0 0 0 0 0 0 0 0 0 0 0 0 0 0 0 0 0 0 0 0 0 0 0 0 0 0 0 0 0 0 0 0 0 0 0
0 0 0 0 0 0 0 0 0 0 0 0 0 0 0 0 0 0 0 0 0 0 0 0 0 0 0 0 0 0 0 0 0 0 0 0 0 0 0 0 0 0 0
0 0 0 0 0 0 0 0 0 0 0 0 0 0 0 0 0 0 0 0 0 0 0 0 0 0 0 0 0 0 0 0 0 0 0 0 0 0 0 0 0 0 0
0 0 0 0 0 0 0 0 0 0 0 0 0 0 0 0 0 0 0 0 0 0 0 0 0 0 0 0 0 0 0 0 0 0 0 0 0 0 0 0 0 0 0
0 0 0 0 0 0 0 0 0 0 0 0 0 0 0 0 0 0 0 0 0 0 0 0 0 0 0 0 0 0 0 0 0 0 0 0 0 0 0 0 0 0 0
0 0 0 0 0 0 0 0 0 0 0 0 0 0 0 0 0 0 0 0 0 0 0 0 0 0 0 0 0 0 0 0 0 0 0 0 0 0 0 0 0 0 0
0 0 0 0 0 0 0 0 0 0 0 0 0 0 0 0 0 0 0 0 0 0 0 0 0 0 0 0 0 0 0 0 0 0 0 0 0 0 0 0 0 0 0
0 0 0 0 0 0 0 0 0 0 0 0 0 0 0 0 0 0 0 0 0 0 0 0 0 0 0 0 0 0 0 0 0 0 0 0 0 0 0 0 0 0 0
0 0 0 0 0 0 0 0 0 0 0 0 0 0 0 0 0 0 0 0 0 0 0 0 0 0 0 0 0 0 0 0 0 0 0 0 0 0 0 0 0 0 0
0 0 0 0 0 0 0 0 0 0 0 0 0 0 0 0 0 0 0 0 0 0 0 0 0 0 0 0 0 0 0 0 0 0 0 0 0 0 0 0 0 0 0
0 0 0 0 0 0 0 0 0 0 0 0 0 0 0 0 0 0 0 0 0 0 0 0 0 0 0 0 0 0 0 0 0 0 0 0 0 0 0 0 0 0 0
0 0 0 0 0 0 0 0 0 0 0 0 0 0 0 0 0 0 0 0 0 0 0 0 0 0 0 0 0 0 0 0 0 0 0 0 0 0 0 0 0 0 0
0 0 0 0 0 0 0 0 0 0 0 0 0 0 0 0 0 0 0 0 0 0 0 0 0 0 0 0 0 0 0 0 0 0 0 0 0 0 0 0 0 0 0
0 0 0 0 0 0 0 0 0 0 0 0 0 0 0 0 0 0 0 0 0 0 0 0 0 0 0 0 0 0 0 0 0 0 0 0 0 0 0 0 0 0 0
Wind_Speed
13 11 10 9 9 8 7 8 7 7 7 7 7 7 7 8 8 8 10 10 11 12 11 12 15 14 11 10 9 9 10 10 14 14 11 10 11 11 12 10 11 11 11
13 11 11 9 8 8 8 8 7 7 7 7 7 7 8 8 8 9 11 12 11 13 14 14 16 13 14 11 9 11 10 11 12 16 13 10 11 11 11 11 11 11 9
12 11 10 10 9 9 8 7 7 7 6 6 6 7 8 9 9 10 11 12 13 14 15 15 15 14 14 11 11 11 11 11 11 13 14 10 9 9 10 10 11 9 11
12 12 12 12 11 9 8 7 7 6 6 6 7 8 9 9 10 11 11 12 13 13 13 12 12 12 13 13 11 12 12 12 11 10 11 10 9 8 7 9 10 7 9
14 14 14 11 9 8 7 7 7 6 7 6 7 8 9 8 8 10 11 12 11 10 9 9 10 14 17 14 11 9 9 9 9 9 10 10 9 7 7 7 10 10 9
15 14 12 10 9 9 8 7 7 7 6 6 7 8 9 8 15 21 16 8 7 7 8 8 10 12 16 20 23 21 18 11 9 9 10 10 10 9 8 9 9 10 8
15 13 12 11 11 10 9 8 8 7 6 7 7 8 9 11 18 19 20 9 5 6 8 8 9 10 16 10 18 21 17 20 19 12 11 11 11 10 10 12 10 10 10
14 13 13 12 11 10 9 9 8 6 6 6 7 8 8 10 16 17 18 6 5 7 7 8 9 10 13 16 11 7 8 10 14 10 9 11 11 11 11 12 11 10 10
16 15 14 13 12 11 11 10 8 6 7 6 6 7 7 9 14 16 16 4 5 7 7 8 10 10 20 23 9 7 9 9 13 16 19 18 20 19 14 8 6 7 8
18 16 14 13 13 12 12 10 7 7 7 6 6 6 6 7 12 14 14 4 5 6 6 7 14 17 21 19 8 7 10 9 7 9 12 14 12 13 16 8 6 7 7
12 12 13 13 13 12 10 8 7 7 6 6 6 5 6 7 10 12 14 5 5 5 6 6 8 20 20 19 16 8 14 13 7 8 8 8 7 6 7 7 7 7 8
12 13 13 13 12 10 10 9 8 7 6 6 5 5 5 6 7 10 13 12 11 5 6 6 8 19 19 19 14 17 20 16 8 8 8 8 8 7 7 7 9 9 11
14 14 13 13 12 11 11 10 7 7 6 5 5 5 4 4 5 11 12 13 14 7 5 12 15 17 16 12 16 19 15 9 8 8 9 9 8 8 8 7 8 8 11
14 14 13 13 12 11 9 9 8 7 6 6 5 5 4 4 4 5 6 6 9 8 5 9 13 14 12 13 13 11 8 8 9 8 9 9 9 8 7 7 7 7 6
13 12 12 12 12 11 10 9 9 8 8 7 6 5 4 4 6 10 6 4 4 4 4 3 4 6 7 7 7 7 7 8 8 8 9 9 10 9 9 8 7 6 5
13 12 11 10 10 9 9 8 13 12 14 15 13 9 7 9 10 10 10 10 10 9 5 4 5 6 7 8 8 8 8 8 8 9 9 9 10 10 9 8 7 7 7
14 13 11 11 11 11 10 9 8 10 13 14 14 13 11 9 9 9 8 7 7 6 3 4 5 6 7 7 7 7 7 8 8 8 8 9 9 10 9 9 9 8 8
13 15 13 10 11 11 11 10 9 8 7 5 7 10 10 8 7 7 5 3 3 3 2 4 5 6 6 7 7 7 7 8 7 7 8 8 9 9 9 9 9 9 9
12 10 10 9 9 10 9 9 8 8 7 5 3 4 8 6 5 5 2 1 2 3 3 4 4 5 6 6 7 7 7 7 8 7 7 8 8 9 9 9 9 14 10
11 18 14 9 9 9 9 9 9 8 7 6 6 5 4 4 3 3 2 2 2 3 4 4 5 5 6 6 6 7 6 7 7 6 7 7 8 8 10 11 10 10 9
9 13 21 12 10 10 10 10 10 9 8 7 6 7 10 5 4 4 3 3 3 3 4 4 5 5 5 5 5 6 7 6 6 6 7 7 8 9 9 9 10 10 9
9 9 10 9 10 10 10 9 9 9 9 8 5 7 13 6 4 4 3 3 3 3 3 4 4 5 5 5 6 6 6 6 6 6 7 7 8 8 9 9 10 10 10
9 10 9 9 9 13 12 9 9 9 9 8 7 6 6 5 5 4 4 3 3 3 3 3 4 5 5 5 5 5 6 6 5 5 6 7 8 8 9 10 11 12 11
10 11 11 10 10 10 10 10 10 9 9 8 8 7 6 5 5 4 4 3 2 3 3 3 4 6 8 6 5 4 5 4 4 3 5 6 8 8 8 9 10 12 10
10 10 11 11 11 11 11 10 10 10 9 9 8 7 7 6 5 4 4 3 3 3 4 4 4 5 8 9 7 5 6 7 7 5 4 5 7 8 9 10 10 11 10
10 11 10 10 10 10 10 11 10 10 10 9 8 7 7 7 6 5 4 3 2 3 3 4 5 7 8 7 6 6 5 6 8 10 6 5 7 8 9 8 11 10 11
Wind_Direction
193 194 193 193 196 198 205 216 222 230 235 241 246 251 255 258 258 259 263 266 266 270 271 269 270 270 268 264 261 261 263 266 277 286 286 288 288 291 296 294 293 292 291
192 191 195 191 191 200 211 218 221 229 234 239 247 254 260 264 261 261 269 275 271 273 275 275 275 275 269 265 261 261 264 265 270 282 288 288 286 287 288 291 296 296 293
188 191 194 195 197 205 212 216 219 226 235 242 249 256 263 266 268 267 268 271 271 272 275 277 277 275 272 265 260 261 264 269 268 276 286 288 284 284 288 291 289 285 287
189 192 199 202 202 205 207 211 217 223 236 247 252 258 264 268 270 272 271 270 272 273 274 275 276 274 271 266 262 261 263 269 271 276 284 287 285 280 280 292 296 288 287
192 197 204 201 196 197 203 209 216 226 241 247 258 265 268 271 269 266 264 266 272 277 277 276 279 287 287 282 277 268 264 269 275 281 284 287 288 290 288 288 291 293 287
195 201 198 189 191 198 204 209 219 231 241 250 257 264 271 275 288 295 296 284 284 283 285 286 289 293 294 298 300 296 293 292 291 283 287 284 285 283 283 281 283 287 289
198 197 192 189 195 201 205 209 221 230 240 250 257 261 267 277 292 299 304 308 288 283 284 290 299 299 305 289 287 291 294 295 297 293 285 283 284 280 276 275 270 267 266
198 196 192 190 195 196 202 214 223 226 236 247 256 262 267 278 297 304 308 313 286 278 279 282 285 286 290 292 284 273 263 273 283 284 272 274 274 271 264 265 267 269 268
201 198 193 189 191 193 206 217 220 221 235 242 251 257 264 280 299 304 312 290 285 281 280 284 295 289 298 315 325 300 293 287 297 301 304 304 304 306 302 291 279 275 281
204 198 190 187 190 197 207 212 212 218 233 242 251 252 261 271 294 306 313 287 289 287 286 289 308 312 318 332 331 308 304 301 300 303 305 304 300 296 300 293 278 272 274
195 186 185 188 192 196 198 204 208 218 228 237 251 258 262 271 294 307 310 306 295 298 305 305 306 318 329 335 336 318 315 330 320 304 301 297 292 282 277 268 253 250 250
180 183 186 187 188 190 193 201 205 211 224 237 247 259 251 265 288 299 310 319 323 306 304 302 306 326 336 337 333 328 336 338 316 309 310 308 305 298 289 277 264 251 245
182 187 186 184 187 186 188 195 199 205 216 230 235 251 257 253 278 301 311 318 323 321 305 320 330 335 337 331 327 337 340 326 315 318 315 312 307 297 294 289 279 264 253
189 189 185 184 186 189 189 192 197 202 209 219 227 238 248 258 269 278 277 289 307 314 314 322 333 335 334 328 331 330 324 318 324 319 313 311 310 308 306 304 300 296 280
190 189 188 188 186 189 194 197 198 203 200 204 214 218 226 246 263 283 297 289 294 304 327 322 322 326 328 325 324 323 323 324 326 321 319 320 320 320 318 317 307 305 287
190 189 187 186 185 186 189 197 215 211 223 228 222 216 228 243 273 293 306 318 326 335 348 324 325 326 325 325 326 325 324 326 326 324 323 323 322 322 320 320 318 311 303
195 189 186 185 184 184 186 186 193 213 224 229 232 236 238 250 271 288 299 322 328 342 336 308 312 317 318 318 318 318 317 319 319 321 322 323 323 323 323 324 324 320 313
196 193 188 187 184 184 185 185 183 184 193 213 227 233 236 244 261 276 295 332 320 323 292 296 305 311 313 316 317 317 316 318 321 323 322 322 324 323 324 325 323 321 317
196 194 189 183 183 182 181 179 179 184 187 185 181 221 224 229 244 260 268 213 264 285 292 296 300 306 310 311 312 313 313 315 319 322 322 323 324 324 324 323 321 322 323
197 198 187 181 181 180 180 179 178 182 185 188 193 196 188 189 205 228 229 231 248 269 283 292 298 303 308 307 309 311 313 316 320 322 322 324 324 324 324 325 325 324 321
191 198 195 186 184 183 183 183 180 179 185 191 195 193 188 188 202 211 220 230 240 260 277 289 295 302 303 304 306 310 312 315 319 322 324 324 326 327 326 324 324 323 321
186 190 188 180 182 186 186 184 179 180 185 187 182 198 203 186 190 203 217 231 239 251 264 278 288 292 297 302 306 310 312 315 321 325 325 325 326 328 329 330 331 331 331
184 186 187 181 180 190 189 183 181 180 183 185 181 183 188 183 191 201 213 222 232 252 267 278 289 295 300 301 300 301 305 312 316 319 327 330 332 333 333 334 334 336 337
186 188 189 184 182 187 186 184 184 181 180 181 182 183 185 184 188 197 200 210 231 255 272 283 290 299 307 311 309 303 298 308 316 325 332 332 333 334 335 337 337 339 338
189 190 190 186 185 188 187 185 184 181 180 184 183 182 181 180 183 189 190 200 224 256 278 291 294 304 309 312 312 307 324 350 0 6 345 340 336 335 337 340 342 343 344
192 193 191 187 186 188 187 185 185 181 181 184 181 176 175 176 176 178 182 192 216 252 277 291 298 307 311 309 309 320 347 6 10 13 8 344 344 347 351 348 347 352 354